This is the latest recevied weather packets stored in our database for station/object WA4TPR. If no packets are shown the sender has not sent any weather packets the latest 10 day(s).
| Time | Temp. | Humidity | Pressure | Rain* | Wind** | Luminosity | Snow |
|---|---|---|---|---|---|---|---|
| 1788560625 | 26.11° C | 99% | 1016.1 hPa | 0 mm | - | 106 W/m² | - |
| 1788560325 | 26.11° C | 99% | 1016 hPa | 0 mm | - | 114 W/m² | - |
| 1788560020 | 26.11° C | 99% | 1015.8 hPa | 1.78 mm | - | 133 W/m² | - |
| 1788559715 | 26.11° C | 99% | 1015.7 hPa | 3.05 mm | - | 174 W/m² | - |
| 1788559414 | 26.11° C | 98% | 1015.9 hPa | 6.1 mm | - | 241 W/m² | - |
| 1788559110 | 25.56° C | 97% | 1016 hPa | 15.49 mm | - | 240 W/m² | - |
| 1788558805 | 25° C | 96% | 1016.3 hPa | 10.67 mm | - | 162 W/m² | - |
| 1788558501 | 25° C | 96% | 1016.6 hPa | 3.05 mm | - | 96 W/m² | - |
| 1788558196 | 25.56° C | 95% | 1016.7 hPa | 4.32 mm | - | 82 W/m² | - |
| 1788557894 | 27.22° C | 89% | 1017 hPa | 1.27 mm | - | 81 W/m² | - |
| 1788557590 | 27.78° C | 85% | 1016.5 hPa | 0 mm | - | 111 W/m² | - |
| 1788557285 | 29.44° C | 83% | 1016.2 hPa | 0 mm | - | 149 W/m² | - |
| 1788556980 | 30.56° C | 81% | 1016.4 hPa | 0 mm | - | 166 W/m² | - |
| 1788556675 | 31.67° C | 79% | 1016.1 hPa | 0 mm | - | 229 W/m² | - |
| 1788556370 | 32.22° C | 78% | 1016.2 hPa | 0 mm | - | 242 W/m² | - |
| 1788556065 | 32.22° C | 77% | 1015.8 hPa | 0 mm | - | 268 W/m² | - |
| 1788555759 | 32.22° C | 76% | 1015.9 hPa | 0 mm | - | 340 W/m² | - |
| 1788555456 | 32.78° C | 75% | 1015.9 hPa | 0 mm | - | 321 W/m² | - |
| 1788555151 | 33.33° C | 73% | 1016 hPa | 0 mm | - | 329 W/m² | - |
| 1788554848 | 33.89° C | 73% | 1015.7 hPa | 0 mm | - | 403 W/m² | - |
| 1788554544 | 34.44° C | 67% | 1016 hPa | 0 mm | - | 370 W/m² | - |
| 1788554240 | 34.44° C | 68% | 1016.1 hPa | 0 mm | - | 404 W/m² | - |
| 1788553936 | 33.89° C | 68% | 1016.1 hPa | 0 mm | - | 403 W/m² | - |
| 1788553632 | 34.44° C | 68% | 1016.4 hPa | 0 mm | - | 240 W/m² | - |
| 1788553328 | 34.44° C | 66% | 1016.1 hPa | 0 mm | - | 454 W/m² | - |
* Rain latest hour (hover to see other rain measurements)
** Current wind speed in m/s (hover to see current wind gust speed)